ECHO 1 DEB (METAL OBJ), 53

Orbit data source: Space-Track

ECHO 1 DEB (METAL OBJ), 53 is space debris in LEO originally from a launch on Fri, 12 Aug 1960 UTC launched from the Air Force Eastern Test Range (AFETR). Debris objects in space refer to the collection of defunct objects orbiting the Earth. Examples of debris include non-operational satellites, rocket bodies, and fragments generated from explosions, collisions, or faulty payload assembly.

Loading next visibility...
Identifier
53, 1960-009E
Orbit
LEO
Last TLE update
23 hours ago
Origin
Manufacturer
Kaiser-Fleetwings
Mission
Spacecraft
Bus & Motor
ECHO CANISTER, Unknown motor
Mass
5 kg wet, 5 kg dry
Launch date (UTC)
1960-08-12 (65 years ago)
Launch vehicle
Unknown
Launch site
Air Force Eastern Test Range (AFETR)
Object type
Payload
Rocket body
Debris
Shape & HBR
Unknown
Radar Cross Section
0.590 m², Medium (>0.1 m² and < 1m²)

Expand to show TLE details & history

TLE from 23 hours ago
0 ECHO 1 DEB (METAL OBJ)
1 00053U 60009E   25128.38053675 -.00000013  00000-0  70029-3 0  9994
2 00053  47.2745 151.0248 0100180 318.1840  41.1327 12.17382301886115
Epoch: 2025-05-08T09:07Z
Definitive object data (Epoch: 2025-05-08T09:07:58.375Z)
Latitude
-0.00003°
Longitude
147.57968°
Altitude
1,544.307 km
Speed
7.122 km/s
True Right ascension
10h 04m 05s
True Declination
0° 00' 00"
Sunlit
Object was in daylight at TLE epoch
Visualization TLE readout
Latitude
-41.47773°
Longitude
18.96572°
Altitude
1,598.538 km
Speed
7.079 km/s
Apparent Right ascension
02h 45m 04s
Apparent Declination
-42° 33' 32"
Sunlit
Object is in daylight
Visualization observer readout
Local Sidereal Time
16:18:04
Azimuth
106.203° ESE
Elevation
-72.374°
Doppler factor
1
Orbital elements
Apogee altitude
1,684.995 km
Perigee altitude
1,525.044 km
Semi-major axis
7,983.157 km
Eccentricity
0.010018
Inclination
47.2745°
RAAN
151.0248°
Arg. of periapsis
318.184°
True anomaly
41.89501°
Mean anomaly
41.1327°
Eccentric anomaly
41.51314°
Mean motion
3.04285 °/min
BSTAR
0.00070029
Orbital period
118.31 mins
Loading maneuver chart data...
Loading SW <> Apogee altitude chart data...
Loading historical data...
Loading historical data...
Loading historical data...
Loading historical data...
Loading historical data...
Loading historical data...
Loading historical data...
Other satellites on launch #9 in the year 1960 (1960-08-12 UTC)

ECHO 1 DEB (METAL OBJ) Visibility forecast

Observer location: undefined°, undefined°

Span
Click to sort rows by Start time (UTC) header in descending order
Start Az.
Max El. time (UTC)
Max El. Az.
Max El.
End time (UTC)
End Az.
19 mins2025-05-09 09:12:57.490Z296.361° NW2025-05-09 09:21:57.490Z7.368° NNE43.056°2025-05-09 09:31:57.490Z102.539° ESE
18 mins2025-05-09 11:18:57.490Z293.719° NW2025-05-09 11:27:57.490Z209.706° SW40.186°2025-05-09 11:36:57.490Z145.634° SSE
9 mins2025-05-09 13:26:57.490Z263.313° W2025-05-09 13:30:57.490Z237.802° WSW15.397°2025-05-09 13:35:57.490Z206.545° SW
15 mins2025-05-10 02:36:57.490Z185.473° SSW2025-05-10 02:43:57.490Z130.405° SE28.386°2025-05-10 02:51:57.490Z72.841° E
18 mins2025-05-10 04:39:57.490Z238.051° WSW2025-05-10 04:47:57.490Z218.119° SW44.952°2025-05-10 04:57:57.490Z62.064° ENE
17 mins2025-05-10 06:45:57.490Z278.091° WNW2025-05-10 06:53:57.490Z351.77° N40.309°2025-05-10 07:02:57.490Z70.373° E
|